This is the latest recevied weather packets stored in our database for station/object 9W3FAB-1. If no packets are shown the sender has not sent any weather packets the latest 10 day(s).
| Time | Temp. | Humidity | Pressure | Rain* | Wind** | Luminosity | Snow |
|---|---|---|---|---|---|---|---|
| 1777897930 | 27.78° C | 100% | 1008.3 hPa | - | - | - | - |
| 1777897029 | 27.78° C | 100% | 1008.4 hPa | - | - | - | - |
| 1777896128 | 27.78° C | 100% | 1008.2 hPa | - | - | - | - |
| 1777895227 | 27.22° C | 100% | 1007.8 hPa | - | - | - | - |
| 1777894326 | 27.22° C | 100% | 1007.7 hPa | - | - | - | - |
| 1777893425 | 27.78° C | 100% | 1007.8 hPa | - | - | - | - |
| 1777892525 | 27.22° C | 100% | 1007.6 hPa | - | - | - | - |
| 1777891624 | 27.22° C | 100% | 1007.5 hPa | - | - | - | - |
| 1777890723 | 27.78° C | 100% | 1007.1 hPa | - | - | - | - |
| 1777889822 | 27.22° C | 100% | 1007.1 hPa | - | - | - | - |
| 1777888921 | 28.33° C | 100% | 1006.5 hPa | - | - | - | - |
| 1777888020 | 28.89° C | 100% | 1006.4 hPa | - | - | - | - |
| 1777887119 | 29.44° C | 100% | 1005.9 hPa | - | - | - | - |
| 1777886219 | 28.33° C | 100% | 1006.2 hPa | - | - | - | - |
| 1777885318 | 29.44° C | 100% | 1006.1 hPa | - | - | - | - |
| 1777884417 | 30.56° C | 100% | 1005.7 hPa | - | - | - | - |
| 1777883516 | 31.11° C | 100% | 1005.4 hPa | - | - | - | - |
| 1777882615 | 31.11° C | 100% | 1005.2 hPa | - | - | - | - |
| 1777881714 | 31.11° C | 100% | 1005.3 hPa | - | - | - | - |
| 1777880814 | 31.11° C | 100% | 1005.2 hPa | - | - | - | - |
| 1777879913 | 31.11° C | 100% | 1005.3 hPa | - | - | - | - |
| 1777879011 | 31.11° C | 100% | 1005.3 hPa | - | - | - | - |
| 1777878110 | 31.67° C | 100% | 1005.5 hPa | - | - | - | - |
| 1777877209 | 31.11° C | 100% | 1005.7 hPa | - | - | - | - |
| 1777876308 | 31.11° C | 100% | 1006.1 hPa | - | - | - | - |
* Rain since midnight (hover to see other rain measurements)
** Current wind speed in m/s (hover to see current wind gust speed)